Wind_Speed
20 20 21 20 20 21 22 22 23 23 23 22 23 21 21 22 22 23 24 25 25 24 24 24 24 24 24 24 25 25 25 25 25 25 25 26 25 25 25 25 25 26 26 26
21 21 22 22 22 23 23 24 24 25 24 23 24 23 24 24 24 25 24 25 25 25 25 25 25 26 26 25 25 26 26 25 26 26 26 26 26 26 26 26 26 26 27 27
22 23 23 23 22 24 25 24 25 26 25 24 25 26 25 25 25 26 26 25 25 25 26 27 27 27 26 26 26 27 27 26 26 26 26 26 26 26 27 27 27 28 28 28
24 24 25 24 24 25 25 24 25 26 26 26 27 27 27 27 27 27 27 27 27 27 27 28 28 28 28 28 28 28 28 28 27 27 27 27 27 27 28 28 28 28 29 29
25 25 25 24 25 26 25 25 25 26 26 27 28 29 28 28 28 28 28 28 28 28 29 29 29 30 31 30 29 29 29 29 28 28 29 29 29 29 29 29 29 29 30 30
26 26 26 25 25 26 27 26 26 26 27 28 30 30 28 29 29 30 30 30 30 30 30 31 31 31 31 32 31 31 31 31 30 30 30 30 30 30 30 30 30 30 30 30
27 27 27 27 27 27 28 27 28 28 28 29 29 30 29 30 31 31 32 32 32 32 32 32 33 33 33 33 33 33 33 33 32 32 31 31 31 31 31 31 31 31 30 31
28 28 28 28 28 28 28 29 29 30 29 29 29 30 30 31 32 33 33 33 33 33 33 33 33 34 33 33 33 33 34 34 33 33 32 32 31 31 31 31 31 31 31 31
28 29 30 29 29 29 30 30 30 31 31 31 30 31 31 33 34 34 33 33 33 34 34 34 34 34 34 33 33 33 33 33 33 33 33 33 32 32 32 32 32 32 32 33
30 30 30 29 30 31 32 31 31 31 31 32 32 32 32 33 34 34 33 33 33 34 34 34 34 34 34 34 33 33 33 33 33 33 34 33 33 33 32 33 33 33 33 33
31 31 32 31 32 33 34 34 33 33 33 33 33 33 32 33 33 33 33 33 33 34 34 34 34 34 34 34 34 34 34 34 34 34 34 34 33 33 33 33 33 33 33 34
32 32 32 32 33 33 34 34 34 35 34 35 35 35 33 32 32 33 33 33 33 34 34 34 33 33 34 34 35 35 34 34 34 34 34 34 33 34 33 34 33 33 34 34
33 33 33 33 33 33 34 34 34 34 35 35 35 36 35 34 34 34 33 34 33 33 33 33 33 33 33 34 34 34 34 34 33 33 32 32 32 33 33 33 33 33 33 33
34 34 34 34 33 33 33 34 34 34 34 35 35 36 36 35 35 35 34 34 33 34 34 34 34 34 34 34 34 34 33 33 32 32 32 32 32 33 33 34 34 34 33 33
35 36 36 35 34 34 33 33 33 34 34 35 35 36 35 35 35 35 35 34 34 33 33 34 34 34 34 34 33 33 33 32 32 32 32 32 33 33 33 34 34 34 33 33
35 35 35 35 34 34 34 34 33 33 34 35 35 35 35 35 35 35 35 35 35 34 34 34 34 34 34 34 33 33 33 32 31 32 33 33 33 33 33 34 34 33 33 33
33 33 33 34 34 34 34 34 34 34 34 34 34 35 35 34 33 33 34 34 34 34 34 34 34 34 34 33 33 33 32 32 32 32 33 33 33 33 33 33 33 33 33 33
31 32 32 32 32 33 33 33 33 33 34 34 34 34 34 34 32 32 32 32 32 32 32 32 32 33 33 33 33 33 33 33 33 32 32 32 32 32 33 33 33 33 32 32
29 30 31 31 31 31 32 32 32 33 33 33 33 33 33 33 32 31 31 31 31 31 32 32 32 32 32 32 32 32 32 31 31 31 31 31 31 31 32 32 31 31 31 31
29 30 30 31 31 30 30 31 31 32 32 32 33 32 32 32 32 31 30 30 30 30 30 30 31 31 32 32 32 31 30 29 29 30 30 30 30 30 29 29 30 30 31 31
29 30 30 30 30 30 30 30 31 31 32 32 32 32 31 31 31 30 29 28 28 28 28 28 28 29 29 30 30 30 29 29 28 28 28 28 27 27 27 28 29 29 30 32
29 29 29 29 29 29 29 29 30 30 30 31 31 30 30 30 29 28 27 27 28 28 27 27 27 27 27 27 28 28 28 28 28 28 28 27 27 27 27 27 28 28 28 29
28 28 28 27 28 28 28 28 29 29 29 29 30 29 29 28 28 28 28 27 28 28 27 27 27 27 27 27 27 27 27 27 27 28 27 27 27 27 27 27 27 27 26 26
27 27 27 27 28 28 28 28 28 29 29 29 29 28 28 27 28 28 27 27 28 28 27 27 27 27 27 26 26 26 26 26 26 27 27 27 27 27 26 26 26 26 25 25
26 26 26 26 27 27 28 28 28 28 29 28 27 27 27 27 27 27 27 27 27 27 26 26 27 27 26 26 26 25 25 24 25 25 26 26 25 26 26 25 25 24 24 24
26 26 26 26 26 26 27 27 27 27 27 27 26 25 26 26 26 27 26 26 26 26 25 25 25 25 25 25 25 25 24 24 24 24 24 23 23 24 24 23 23 23 23 23
26 26 26 26 26 27 27 27 27 25 25 24 24 24 24 25 25 25 25 25 24 24 24 24 23 23 23 23 23 23 23 23 23 22 22 22 22 22 22 22 22 22 21 21
Wind_Direction
279 279 279 278 278 279 280 282 281 281 280 278 278 274 271 267 266 264 264 266 268 269 270 272 272 272 274 274 277 280 281 282 281 279 278 277 278 278 278 279 280 281 281 280
279 278 277 276 277 278 281 282 282 280 279 278 275 274 272 269 268 267 267 268 269 268 269 270 270 271 274 276 279 280 281 281 280 279 277 277 277 278 278 279 280 281 282 281
280 278 277 277 278 278 280 281 282 281 279 277 274 272 272 272 269 267 268 269 270 270 270 271 271 271 273 275 279 281 283 282 280 278 276 277 277 278 278 278 279 281 282 281
281 280 279 282 280 280 280 281 281 280 279 276 275 274 270 271 270 268 269 269 270 271 272 273 271 272 273 274 277 280 282 282 280 278 277 276 276 278 278 278 279 281 281 281
283 283 284 284 284 283 281 283 282 281 279 276 275 275 275 272 272 271 272 271 271 272 273 274 272 273 274 274 276 279 280 281 280 278 278 276 276 277 277 278 279 281 281 280
284 285 286 287 286 286 283 282 282 281 279 277 276 274 275 275 273 274 273 273 272 272 273 274 273 273 273 274 275 276 277 278 278 277 277 277 276 276 277 276 277 279 280 280
283 285 285 287 287 287 286 285 283 282 280 280 278 276 276 275 274 274 274 273 273 273 273 274 274 273 273 274 274 275 276 276 276 275 275 276 276 277 277 277 277 278 279 280
282 284 285 287 288 286 285 285 283 282 280 279 280 278 277 277 275 275 275 274 273 273 273 273 274 274 274 275 275 276 276 276 276 274 274 275 276 276 277 277 276 277 278 279
282 284 285 286 286 286 286 286 284 283 281 280 280 279 279 279 279 278 277 276 275 274 273 273 273 273 273 274 275 275 275 275 276 275 275 275 275 276 275 275 276 277 278 279
283 283 284 283 283 283 284 285 284 285 283 281 281 281 281 281 280 279 277 276 275 275 275 274 273 273 272 273 274 275 275 276 276 276 276 275 274 274 275 276 276 278 278 279
281 282 283 282 282 283 284 283 284 284 283 281 280 281 281 280 279 279 278 276 275 274 275 275 274 272 271 272 273 274 275 274 274 275 276 276 274 274 275 276 277 277 277 279
281 282 282 282 281 282 283 284 283 284 284 282 280 278 279 279 278 278 277 275 273 273 274 274 272 270 271 273 274 274 274 274 273 274 274 275 274 274 275 276 276 276 276 278
280 281 282 282 281 282 283 284 284 285 285 284 282 280 280 279 278 278 277 274 272 271 271 272 271 271 272 273 273 274 275 274 273 274 275 273 272 273 274 275 276 277 278 278
280 280 281 282 282 283 284 284 284 284 285 284 283 282 282 281 280 279 278 276 274 271 270 271 271 272 272 273 274 275 276 275 275 275 275 274 273 273 274 274 276 277 277 277
283 281 281 280 281 282 283 284 284 284 284 285 284 282 282 282 282 280 278 277 275 273 271 270 270 271 271 272 273 273 274 275 276 276 276 275 274 274 275 276 277 277 277 278
283 283 282 280 280 280 281 283 283 284 284 284 285 283 283 284 283 282 279 276 275 273 273 272 271 270 271 272 272 272 273 274 275 276 276 275 274 275 274 276 277 277 277 279
284 284 283 282 280 280 281 282 283 284 284 284 284 283 283 284 283 281 278 276 275 274 273 273 272 271 271 271 272 272 271 272 273 274 276 275 274 274 275 275 275 276 278 279
284 284 284 284 284 282 282 283 283 283 284 284 284 284 284 284 283 281 279 277 276 274 274 275 275 272 270 269 270 271 271 271 272 273 275 275 275 274 273 274 274 276 277 277
285 285 285 286 286 287 285 284 284 284 284 285 286 286 285 284 283 281 280 278 277 277 277 277 276 275 273 271 271 271 270 271 272 273 273 274 274 274 273 273 273 275 276 278
288 287 286 286 287 288 288 287 286 285 286 286 287 287 286 284 282 282 281 280 280 279 278 277 276 275 273 272 271 271 271 270 271 273 274 274 275 274 274 273 273 274 275 278
289 289 288 288 288 289 289 289 288 287 287 287 288 287 286 284 283 282 282 281 280 278 277 277 276 274 272 271 270 269 270 270 271 273 273 273 274 274 275 274 275 276 277 278
291 290 289 288 289 290 290 290 289 289 288 288 289 289 286 284 283 282 282 282 281 279 279 279 278 276 274 272 271 271 271 270 271 272 273 273 274 276 276 276 277 277 279 279
290 290 289 289 290 291 291 291 290 290 291 290 289 288 287 285 284 282 282 282 281 280 280 279 278 276 275 273 272 272 272 272 272 273 274 274 275 276 277 277 277 278 278 278
290 290 289 289 290 290 291 291 292 292 292 292 290 288 287 286 284 282 283 283 282 281 280 278 276 275 274 273 274 275 274 274 275 275 275 275 275 275 276 276 277 279 279 280
291 291 291 291 291 291 291 292 292 293 292 292 291 289 288 286 284 283 284 285 284 282 280 278 276 274 272 272 273 274 275 275 276 276 275 276 275 275 274 276 277 277 280 282
295 294 293 293 293 294 295 296 295 293 291 291 290 289 288 287 285 285 285 286 286 285 282 279 276 272 270 270 271 273 274 275 275 275 274 274 275 275 274 276 278 279 281 282
296 295 295 295 295 295 296 296 296 294 293 293 292 291 290 288 287 286 285 287 287 286 283 280 276 272 270 270 269 270 271 273 273 272 273 275 275 275 275 276 278 279 280 282
Height
5768 5768 5767 5767 5766 5765 5764 5763 5763 5763 5762 5762 5762 5762 5762 5762 5762 5763 5763 5763 5763 5763 5763 5763 5762 5762 5761 5760 5759 5758 5756 5755 5754 5753 5752 5750 5749 5748 5748 5747 5746 5745 5744 5743
5763 5762 5761 5760 5760 5759 5759 5758 5757 5756 5756 5756 5755 5755 5755 5756 5756 5756 5756 5756 5756 5756 5756 5755 5755 5754 5754 5753 5752 5751 5749 5748 5747 5745 5744 5743 5742 5741 5741 5740 5739 5738 5737 5736
5756 5756 5754 5754 5755 5753 5753 5752 5751 5750 5751 5750 5749 5749 5748 5749 5749 5749 5749 5749 5749 5749 5748 5748 5747 5747 5746 5745 5744 5743 5742 5740 5739 5738 5737 5736 5735 5734 5733 5733 5732 5731 5729 5728
5749 5749 5748 5751 5748 5746 5745 5745 5743 5742 5742 5742 5742 5741 5741 5741 5741 5741 5741 5741 5741 5740 5740 5740 5739 5738 5738 5737 5736 5735 5734 5733 5731 5730 5729 5728 5727 5726 5726 5725 5724 5723 5721 5720
5742 5741 5741 5742 5740 5739 5738 5737 5736 5735 5734 5734 5734 5733 5734 5733 5733 5733 5732 5732 5732 5732 5731 5730 5730 5729 5729 5728 5727 5726 5725 5724 5723 5722 5721 5720 5719 5718 5717 5716 5715 5714 5713 5712
5735 5733 5733 5735 5733 5731 5731 5730 5729 5727 5726 5726 5725 5725 5726 5725 5724 5724 5724 5723 5723 5723 5722 5721 5720 5720 5719 5719 5718 5717 5716 5715 5714 5713 5712 5711 5710 5709 5708 5707 5706 5705 5704 5703
5728 5726 5725 5726 5725 5724 5724 5723 5721 5719 5718 5717 5716 5716 5717 5716 5715 5715 5715 5714 5714 5713 5713 5712 5711 5710 5710 5709 5709 5708 5707 5706 5705 5704 5703 5702 5700 5699 5699 5698 5697 5696 5695 5694
5721 5719 5720 5718 5716 5716 5715 5713 5711 5710 5709 5708 5707 5707 5706 5706 5706 5705 5705 5704 5704 5703 5703 5702 5701 5701 5700 5699 5699 5698 5697 5695 5694 5693 5692 5691 5691 5690 5688 5688 5687 5686 5685 5684
5713 5713 5710 5709 5708 5706 5705 5704 5703 5701 5700 5699 5699 5698 5697 5697 5696 5695 5694 5694 5693 5692 5692 5691 5691 5690 5689 5688 5688 5687 5686 5685 5684 5683 5682 5681 5681 5680 5679 5678 5677 5677 5676 5675
5704 5703 5702 5700 5699 5697 5696 5695 5693 5692 5691 5690 5689 5688 5688 5687 5686 5685 5684 5683 5682 5681 5681 5681 5680 5679 5678 5678 5677 5676 5676 5675 5674 5673 5672 5671 5670 5670 5669 5668 5667 5667 5666 5664
5695 5694 5693 5692 5690 5688 5686 5685 5683 5682 5681 5680 5679 5678 5677 5676 5675 5674 5673 5672 5671 5671 5670 5670 5669 5668 5667 5667 5666 5666 5665 5664 5663 5662 5661 5661 5660 5659 5659 5658 5657 5657 5656 5655
5687 5685 5683 5683 5681 5679 5677 5676 5674 5672 5671 5670 5668 5667 5666 5665 5664 5663 5662 5661 5661 5660 5659 5658 5658 5657 5657 5656 5655 5654 5654 5653 5652 5652 5651 5650 5650 5649 5648 5648 5647 5646 5645 5644
5677 5675 5673 5672 5671 5669 5668 5666 5664 5663 5661 5660 5658 5657 5655 5654 5653 5652 5651 5650 5649 5649 5648 5647 5647 5646 5646 5645 5644 5644 5643 5642 5642 5641 5641 5640 5640 5639 5639 5638 5637 5636 5635 5634
5666 5665 5664 5662 5661 5660 5658 5656 5655 5653 5651 5650 5648 5647 5645 5644 5643 5642 5640 5639 5638 5638 5638 5637 5636 5636 5635 5634 5633 5633 5632 5632 5631 5631 5630 5630 5629 5629 5629 5628 5628 5626 5625 5624
5656 5654 5654 5652 5651 5650 5648 5647 5645 5643 5642 5640 5638 5636 5635 5634 5633 5631 5630 5628 5627 5627 5626 5626 5626 5625 5624 5623 5623 5622 5622 5622 5621 5621 5620 5620 5619 5619 5619 5618 5617 5616 5615 5614
5646 5644 5643 5642 5641 5639 5638 5636 5635 5633 5631 5630 5628 5626 5625 5623 5622 5621 5619 5618 5617 5617 5616 5615 5615 5614 5613 5613 5612 5612 5612 5611 5611 5611 5610 5610 5609 5609 5609 5608 5607 5606 5606 5604
5636 5634 5633 5632 5630 5629 5627 5626 5624 5623 5621 5619 5617 5616 5614 5613 5612 5610 5609 5608 5607 5606 5606 5605 5604 5603 5603 5602 5602 5602 5601 5601 5601 5601 5600 5600 5599 5599 5598 5598 5597 5597 5596 5595
5626 5625 5623 5622 5620 5619 5617 5616 5614 5612 5611 5609 5607 5605 5604 5602 5601 5600 5598 5597 5597 5596 5595 5594 5593 5592 5592 5592 5591 5591 5591 5591 5591 5591 5591 5590 5589 5589 5588 5588 5588 5587 5586 5585
5617 5616 5614 5612 5611 5609 5607 5606 5604 5602 5600 5599 5597 5595 5594 5592 5591 5589 5588 5587 5586 5585 5584 5583 5582 5582 5582 5581 5581 5581 5581 5581 5581 5581 5581 5580 5580 5579 5579 5578 5578 5578 5577 5576
5608 5607 5605 5603 5601 5599 5598 5596 5594 5592 5590 5588 5587 5585 5584 5582 5581 5579 5578 5577 5576 5575 5574 5573 5572 5572 5572 5572 5572 5572 5572 5572 5572 5572 5572 5571 5571 5570 5570 5569 5569 5568 5568 5567
5600 5598 5596 5594 5592 5590 5588 5586 5584 5582 5580 5579 5577 5575 5574 5572 5570 5569 5568 5567 5566 5565 5564 5564 5563 5562 5562 5562 5562 5562 5563 5563 5563 5563 5562 5562 5562 5561 5561 5561 5560 5559 5559 5558
5591 5589 5587 5585 5583 5581 5579 5577 5575 5573 5571 5569 5567 5565 5564 5562 5561 5560 5559 5558 5557 5555 5555 5554 5554 5553 5553 5553 5553 5553 5553 5554 5554 5553 5553 5553 5553 5553 5552 5552 5551 5551 5550 5549
5582 5580 5578 5576 5574 5573 5570 5568 5566 5564 5562 5560 5558 5556 5554 5553 5551 5550 5550 5549 5547 5546 5546 5545 5544 5544 5544 5544 5544 5544 5545 5545 5545 5545 5544 5544 5544 5544 5544 5544 5543 5542 5541 5541
5574 5572 5570 5568 5566 5564 5562 5560 5558 5555 5553 5551 5549 5547 5545 5544 5543 5541 5540 5539 5538 5537 5537 5536 5535 5535 5535 5535 5536 5536 5536 5536 5536 5536 5536 5535 5536 5536 5535 5535 5535 5534 5533 5533
5566 5564 5562 5560 5558 5556 5554 5551 5549 5547 5544 5542 5540 5538 5537 5535 5534 5533 5532 5530 5529 5528 5528 5527 5527 5527 5527 5527 5527 5527 5527 5527 5527 5527 5527 5527 5527 5527 5527 5527 5526 5526 5525 5525
5558 5556 5554 5552 5550 5547 5545 5543 5540 5538 5536 5534 5532 5530 5528 5527 5526 5524 5523 5522 5521 5520 5519 5518 5518 5518 5518 5518 5519 5519 5519 5519 5519 5519 5519 5519 5519 5519 5519 5519 5518 5518 5517 5517
5550 5548 5546 5544 5542 5540 5537 5535 5533 5530 5528 5526 5524 5523 5521 5519 5518 5516 5515 5514 5513 5512 5511 5510 5510 5509 5510 5510 5511 5511 5511 5511 5511 5511 5511 5511 5511 5511 5511 5511 5511 5510 5510 5509